Lowell, ID

9:22 AM MDT on April 27, 2017 (GMT -0600)
Lowell

Weather History for KP69 - November, 2013

Change the Weather History Date:

Tuesday, November 26, 2013

  Actual Average Record
Temperature  
Mean Temperature 34 °F -  
Max Temperature 41 °F 41 °F 54 °F (1999)
Min Temperature 27 °F 31 °F 19 °F (2010)
Degree Days  
Heating Degree Days 31    
Moisture  
Dew Point 28 °F    
Average Humidity 88    
Maximum Humidity 96    
Minimum Humidity 70    
Precipitation  
Precipitation 0.00 in - - ()
Sea Level Pressure  
Sea Level Pressure 30.40 in    
Wind  
Wind Speed 5 mph (NNW)    
Max Wind Speed 8 mph    
Max Gust Speed -    
Averages and records for this station are not official NWS values.
T = Trace of Precipitation, MM = Missing Value Source: NWS Daily Summary

Daily Weather History Graph

Daily Weather History Graph

Search for Another Location

Airport or City:

Trip Planner

Search our weather history database for the weather conditions in past years. The results will help you decide how hot, cold, wet, or windy it might be!

Date:

Astronomy

Nov. 26, 2013 Rise Set
Actual Time 7:56 AM MST 5:01 PM MST
Civil Twilight 7:23 AM MST 5:34 PM MST
Nautical Twilight 6:46 AM MST 6:11 PM MST
Astronomical Twilight 6:10 AM MST 6:47 PM MST
Moon 12:44 AM MST (11/26) 1:28 PM MST (11/26)
Length of Visible Light 10h 11m
Length of Day
9h 04m
Last Quarter, 40% of the Moon is Illuminated
Nov 26
Last Quarter
Dec 2
New
Dec 9
First Quarter
Dec 17
Full
Dec 25
Last Quarter

Hourly Weather History & Observations

Time (MST) Temp. Windchill Dew Point Humidity Pressure Visibility Wind Dir Wind Speed Gust Speed Precip Events Conditions
12:52 AM 28.9 °F 25.2 °F 26.1 °F 89% 30.51 in - Variable 3.5 mph - N/A   Unknown
1:52 AM 28.0 °F 21.7 °F 26.1 °F 92% 30.50 in - NNW 5.8 mph - N/A   Unknown
2:52 AM 28.0 °F 22.8 °F 26.1 °F 92% 30.51 in - NW 4.6 mph - N/A   Unknown
3:52 AM 28.0 °F 22.8 °F 25.0 °F 88% 30.51 in - North 4.6 mph - N/A   Unknown
4:52 AM 27.0 °F 19.5 °F 25.0 °F 92% 30.51 in - NNW 6.9 mph - N/A   Unknown
5:52 AM 27.0 °F 21.6 °F 25.0 °F 92% 30.50 in - NNW 4.6 mph - N/A   Unknown
6:52 AM 27.0 °F 20.5 °F 24.1 °F 89% 30.49 in - NNW 5.8 mph - N/A   Unknown
7:52 AM 27.0 °F 20.5 °F 24.1 °F 89% 30.49 in - NNW 5.8 mph - N/A   Unknown
8:52 AM 27.0 °F 18.7 °F 24.1 °F 89% 30.48 in - NNW 8.1 mph - N/A   Unknown
9:52 AM 28.0 °F 21.7 °F 24.1 °F 85% 30.48 in - NNW 5.8 mph - N/A   Unknown
10:52 AM 30.9 °F 25.2 °F 27.0 °F 85% 30.45 in - North 5.8 mph - N/A   Unknown
11:52 AM 34.0 °F 28.0 °F 28.9 °F 82% 30.40 in - NNW 6.9 mph - N/A   Unknown
12:52 PM 37.9 °F 33.5 °F 30.9 °F 76% 30.36 in - NNW 5.8 mph - N/A   Unknown
1:52 PM 41.0 °F 38.0 °F 32.0 °F 70% 30.32 in - North 4.6 mph - N/A   Unknown
2:52 PM 39.0 °F 34.0 °F 32.0 °F 76% 30.29 in - North 6.9 mph - N/A   Unknown
3:52 PM 37.9 °F 33.5 °F 32.0 °F 79% 30.28 in - NNW 5.8 mph - N/A   Unknown
4:52 PM 36.0 °F 32.1 °F 32.0 °F 86% 30.28 in - North 4.6 mph - N/A   Unknown
5:52 PM 34.0 °F 29.8 °F 30.9 °F 89% 30.29 in - North 4.6 mph - N/A   Unknown
6:52 PM 32.0 °F 28.7 °F 30.0 °F 92% 30.30 in - NNW 3.5 mph - N/A   Unknown
7:52 PM 30.0 °F - 28.9 °F 96% 30.33 in - Calm Calm - N/A   Unknown
8:52 PM 30.0 °F - 28.0 °F 92% 30.34 in - Calm Calm - N/A   Unknown
9:52 PM 28.9 °F - 28.0 °F 96% 30.35 in - Calm Calm - N/A   Unknown
10:52 PM 28.9 °F - 28.0 °F 96% 30.34 in - Calm Calm - N/A   Unknown
11:52 PM 28.9 °F - 26.1 °F 89% 30.33 in - Calm Calm - N/A   Unknown